Zurück zum Katalog

WNISAT 1

AktivWetterSSO
NORAD 39423·PAYLOAD·🇯🇵 Japan

Gestartet Nov 21, 2013 von Dombarovsky

Loading…

Nächste Überflüge (nächste 24 Stunden)

TLE

AktuellSource: Space-Track

Epoche: Sep 14, 2026, 08:24 UTC

1 39423U 13066H   26257.35062067  .00000401  00000-0  82072-4 0  9996
2 39423  97.7335  40.2454 0161632 311.3980  47.3420 14.58192713679722

Verfolge WNISAT 1 in Echtzeit mit AllMySat

Download on the App Store